EW4745 Weather Reports


Display with metric or nautical units.
time (UTC)temp
F
wind
direction
speed
MPH
gust
MPH
rain 1hr
in
rain 24hr
in
rain mn
in
humidity
%
barometer
mb
20260504081614 62 178 0.0 0.0 0.00 0.00 0.00 81 1015.2
20260504081205 63 178 0.0 0.0 0.00 0.00 0.00 81 1014.0
20260504081114 63 178 0.0 0.0 0.00 0.00 0.00 81 1015.2
20260504080704 63 178 0.0 0.0 0.00 0.00 0.00 81 1014.0
20260504080613 63 178 0.0 0.0 0.00 0.00 0.00 80 1015.2
20260504080205 63 178 0.0 0.0 0.00 0.00 0.00 80 1013.9
20260504080114 63 178 0.0 0.0 0.00 0.00 0.00 80 1014.9
20260504070157 65 175 0.0 1.0 0.00 0.00 0.00 77 1014.7
20260504070142 65 175 0.0 1.0 0.00 0.00 0.00 77 1015.9
20260504060154 66 227 0.0 1.0 0.00 0.00 0.00 75 1015.5
20260504050654 66 211 0.0 1.0 0.00 0.00 0.00 73 1016.0
20260504050409 66 219 0.0 1.0 0.00 0.00 0.00 73 1017.3
20260504045914 66 226 0.0 1.0 0.00 0.00 0.00 73 1017.3
20260504045412 67 205 0.0 1.0 0.00 0.00 0.00 73 1017.6
20260504045148 67 206 0.0 1.0 0.00 0.00 0.00 73 1016.3
20260504044911 67 224 0.0 1.0 0.00 0.00 0.00 73 1017.6
20260504044642 67 248 0.0 1.0 0.00 0.00 0.00 73 1016.3
20260504044413 67 249 0.0 1.0 0.00 0.00 0.00 73 1017.6
20260504044139 67 248 0.0 1.0 0.00 0.00 0.00 73 1016.3
20260504043912 67 230 0.0 1.0 0.00 0.00 0.00 73 1017.6
20260504043630 67 179 0.0 1.0 0.00 0.00 0.00 73 1016.3
20260504043412 67 178 0.0 0.0 0.00 0.00 0.00 73 1017.6
20260504043128 67 179 0.0 1.0 0.00 0.00 0.00 73 1016.5
20260504042939 67 227 0.0 1.0 0.00 0.00 0.00 73 1017.6
20260504042627 67 165 0.0 2.0 0.00 0.00 0.00 73 1016.4
20260504042443 67 195 1.0 1.0 0.00 0.00 0.00 73 1017.6
20260504042127 67 222 0.0 2.0 0.00 0.00 0.00 73 1016.4
20260504041942 67 219 0.0 1.0 0.00 0.00 0.00 73 1017.6
20260504041627 67 196 0.0 2.0 0.00 0.00 0.00 73 1016.5
20260504041513 67 186 1.0 1.0 0.00 0.00 0.00 73 1017.6
20260504041011 67 70 0.0 0.0 0.00 0.00 0.00 73 1017.6
20260504040625 67 70 0.0 2.0 0.00 0.00 0.00 73 1016.7
20260504040513 67 59 0.0 2.0 0.00 0.00 0.00 73 1017.9
20260504040039 67 208 0.0 0.0 0.00 0.00 0.00 72 1017.9
20260504035625 67 207 0.0 1.0 0.00 0.00 0.00 72 1016.7
20260504035541 67 207 0.0 1.0 0.00 0.00 0.00 72 1017.9
20260504035124 67 209 0.0 1.0 0.00 0.00 0.00 72 1016.6
20260504035037 67 209 0.0 1.0 0.00 0.00 0.00 72 1017.9
20260504034622 67 186 0.0 1.0 0.00 0.00 0.00 72 1016.5
20260504034541 68 187 0.0 1.0 0.00 0.00 0.00 72 1017.6
20260504034124 67 152 0.0 0.0 0.00 0.00 0.00 72 1016.4
20260504034113 68 152 0.0 0.0 0.00 0.00 0.00 72 1017.6
20260504033622 67 151 0.0 2.0 0.00 0.00 0.00 72 1016.3
20260504033617 68 151 0.0 0.0 0.00 0.00 0.00 72 1017.6
20260504033138 68 150 0.0 0.0 0.00 0.00 0.00 72 1017.6
20260504033119 67 150 0.0 2.0 0.00 0.00 0.00 72 1016.3
20260504032637 68 205 0.0 0.0 0.00 0.00 0.00 71 1017.6
20260504032617 68 205 0.0 1.0 0.00 0.00 0.00 71 1016.5
20260504032138 68 220 0.0 1.0 0.00 0.00 0.00 71 1017.6
20260504032117 68 220 0.0 1.0 0.00 0.00 0.00 71 1016.5
20260504031640 68 213 0.0 0.0 0.00 0.00 0.00 71 1017.6
20260504031612 68 212 0.0 1.0 0.00 0.00 0.00 71 1016.6
20260504031140 68 213 0.0 0.0 0.00 0.00 0.00 71 1017.6
20260504031112 68 202 0.0 1.0 0.00 0.00 0.00 70 1016.4
20260504030715 69 204 0.0 0.0 0.00 0.00 0.00 70 1017.6
20260504030212 69 210 0.0 0.0 0.00 0.00 0.00 70 1017.6
20260504030113 69 236 0.0 1.0 0.00 0.00 0.00 69 1016.4
20260504025712 69 208 0.0 0.0 0.00 0.00 0.00 70 1017.6
20260504025607 69 209 0.0 1.0 0.00 0.00 0.00 69 1016.3
20260504025211 69 209 1.0 1.0 0.00 0.00 0.00 69 1017.6
20260504025101 69 209 0.0 1.0 0.00 0.00 0.00 69 1016.4
20260504024711 69 208 0.0 1.0 0.00 0.00 0.00 69 1017.6
20260504024555 69 207 0.0 1.0 0.00 0.00 0.00 69 1016.4
20260504024213 69 199 1.0 1.0 0.00 0.00 0.00 69 1017.6
20260504024049 69 231 0.0 1.0 0.00 0.00 0.00 68 1016.3
20260504023738 69 238 0.0 1.0 0.00 0.00 0.00 68 1017.3
20260504023549 69 276 0.0 1.0 0.00 0.00 0.00 68 1016.2
20260504023239 70 162 0.0 1.0 0.00 0.00 0.00 68 1017.3
20260504023049 70 163 0.0 1.0 0.00 0.00 0.00 68 1016.2
20260504022740 70 196 0.0 0.0 0.00 0.00 0.00 67 1017.3
20260504022549 70 194 0.0 1.0 0.00 0.00 0.00 67 1016.0
20260504022244 70 221 0.0 1.0 0.00 0.00 0.00 67 1016.9
20260504022047 70 228 0.0 1.0 0.00 0.00 0.00 67 1015.9
20260504021741 70 171 0.0 1.0 0.00 0.00 0.00 67 1016.9
20260504021547 70 189 0.0 2.0 0.00 0.00 0.00 67 1015.7
20260504021241 70 170 0.0 0.0 0.00 0.00 0.00 66 1016.9
20260504021048 70 167 0.0 2.0 0.00 0.00 0.00 66 1015.8
20260504020740 70 177 0.0 1.0 0.00 0.00 0.00 65 1016.9
20260504020550 71 159 0.0 1.0 0.00 0.00 0.00 65 1015.9
20260504020239 71 227 0.0 1.0 0.00 0.00 0.00 65 1016.9
20260504015727 71 234 0.0 1.0 0.00 0.00 0.00 65 1016.9
20260504015544 71 233 0.0 1.0 0.00 0.00 0.00 65 1015.9
20260504015217 71 230 0.0 1.0 0.00 0.00 0.00 64 1016.9
20260504015043 71 209 0.0 1.0 0.00 0.00 0.00 64 1015.8
20260504014717 71 202 0.0 1.0 0.00 0.00 0.00 64 1016.9
20260504014543 71 225 0.0 1.0 0.00 0.00 0.00 64 1015.8
20260504014217 71 196 0.0 1.0 0.00 0.00 0.00 64 1016.9
20260504014040 71 223 0.0 1.0 0.00 0.00 0.00 63 1015.7
20260504013719 72 224 0.0 1.0 0.00 0.00 0.00 63 1016.9
20260504013541 72 232 0.0 1.0 0.00 0.00 0.00 63 1015.6
20260504013217 72 157 0.0 1.0 0.00 0.00 0.00 62 1016.9
20260504013041 72 163 0.0 2.0 0.00 0.00 0.00 62 1015.7
20260504012718 72 142 0.0 2.0 0.00 0.00 0.00 61 1016.9
20260504012541 72 297 0.0 2.0 0.00 0.00 0.00 61 1015.7
20260504012218 72 184 0.0 0.0 0.00 0.00 0.00 61 1016.9
20260504011717 73 224 0.0 0.0 0.00 0.00 0.00 60 1016.9
20260504011535 73 223 0.0 5.0 0.00 0.00 0.00 60 1015.6
20260504011216 73 149 0.0 1.0 0.00 0.00 0.00 59 1016.6
20260504011033 73 150 0.0 3.0 0.00 0.00 0.00 60 1015.5
20260504010716 73 74 0.0 3.0 0.00 0.00 0.00 59 1016.9
20260504010216 73 279 0.0 1.0 0.00 0.00 0.00 59 1016.6
20260504010033 73 248 0.0 2.0 0.00 0.00 0.00 59 1015.6
20260504005718 73 247 0.0 1.0 0.00 0.00 0.00 59 1016.9
20260504005531 73 347 0.0 2.0 0.00 0.00 0.00 59 1015.7
20260504005216 74 155 0.0 0.0 0.00 0.00 0.00 58 1016.9
20260504004717 74 200 0.0 1.0 0.00 0.00 0.00 58 1016.9
20260504004528 74 174 0.0 4.0 0.00 0.00 0.00 58 1015.6
20260504004216 74 279 0.0 1.0 0.00 0.00 0.00 57 1016.9
20260504004026 74 336 0.0 4.0 0.00 0.00 0.00 57 1015.8
20260504003716 75 322 0.0 4.0 0.00 0.00 0.00 57 1016.9
20260504003527 74 103 0.0 2.0 0.00 0.00 0.00 56 1015.7
20260504003217 75 128 0.0 1.0 0.00 0.00 0.00 56 1016.9
20260504003026 75 117 0.0 3.0 0.00 0.00 0.00 56 1015.7
20260504002716 75 40 0.0 2.0 0.00 0.00 0.00 56 1016.9
20260504002526 75 342 1.0 5.0 0.00 0.00 0.00 55 1015.7
20260504002216 75 144 0.0 2.0 0.00 0.00 0.00 55 1016.9
20260504002027 75 277 0.0 5.0 0.00 0.00 0.00 55 1015.8
20260504001716 76 274 0.0 1.0 0.00 0.00 0.00 55 1016.9
20260504001527 76 298 0.0 7.0 0.00 0.00 0.00 55 1015.9
20260504001217 76 279 0.0 1.0 0.00 0.00 0.00 55 1016.9
20260504001027 76 292 1.0 7.0 0.00 0.00 0.00 55 1015.9
20260504000716 76 62 1.0 7.0 0.00 0.00 0.00 55 1016.9
20260504000522 76 277 1.0 6.0 0.00 0.00 0.00 55 1015.8
20260504000214 76 88 1.0 4.0 0.00 0.00 0.00 54 1016.9
20260504000016 76 53 1.0 6.0 0.00 0.00 0.00 54 1015.8
20260503235715 77 59 2.0 4.0 0.00 0.00 0.00 54 1016.9
20260503235215 77 325 1.0 5.0 0.00 0.00 0.00 53 1016.9
20260503235012 78 113 1.0 4.0 0.00 0.00 0.00 54 1015.7
20260503234715 78 277 0.0 1.0 0.00 0.00 0.00 53 1016.9
20260503234213 78 151 2.0 4.0 0.00 0.00 0.00 53 1016.9
20260503233714 78 246 0.0 1.0 0.00 0.00 0.00 53 1016.9
20260503233514 78 176 1.0 4.0 0.00 0.00 0.00 52 1015.7
20260503233214 79 230 3.0 4.0 0.00 0.00 0.00 53 1016.9
20260503233010 79 166 1.0 3.0 0.00 0.00 0.00 54 1015.6
20260503232715 79 346 0.0 2.0 0.00 0.00 0.00 53 1016.9
20260503232217 79 144 0.0 3.0 0.00 0.00 0.00 51 1016.9
20260503232012 79 247 1.0 4.0 0.00 0.00 0.00 51 1015.7
20260503231714 80 241 0.0 2.0 0.00 0.00 0.00 52 1016.9
20260503231214 80 198 2.0 3.0 0.00 0.00 0.00 52 1016.9
20260503230715 80 200 2.0 2.0 0.00 0.00 0.00 50 1016.9
20260503230213 80 228 0.0 1.0 0.00 0.00 0.00 50 1016.9
20260503230008 80 246 1.0 8.0 0.00 0.00 0.00 49 1015.9
20260503225715 80 276 1.0 1.0 0.00 0.00 0.00 48 1016.9
20260503225509 80 277 0.0 4.0 0.00 0.00 0.00 48 1016.0
20260503225216 80 84 1.0 3.0 0.00 0.00 0.00 48 1017.3
20260503225010 80 123 1.0 7.0 0.00 0.00 0.00 47 1016.0
20260503224712 80 180 1.0 3.0 0.00 0.00 0.00 46 1017.3
20260503224212 81 313 0.0 4.0 0.00 0.00 0.00 44 1017.3
20260503223714 81 83 4.0 5.0 0.00 0.00 0.00 44 1017.3
20260503223212 81 111 0.0 4.0 0.00 0.00 0.00 42 1016.9
20260503223010 81 71 1.0 4.0 0.00 0.00 0.00 43 1016.0
20260503222714 81 33 0.0 3.0 0.00 0.00 0.00 44 1017.3
20260503222214 82 76 1.0 4.0 0.00 0.00 0.00 43 1017.3
20260503222007 82 171 1.0 7.0 0.00 0.00 0.00 43 1016.2
20260503221714 82 252 0.0 5.0 0.00 0.00 0.00 41 1017.6
20260503221507 82 35 1.0 7.0 0.00 0.00 0.00 41 1016.3
20260503221213 82 102 0.0 1.0 0.00 0.00 0.00 40 1017.6
20260503221006 82 229 1.0 7.0 0.00 0.00 0.00 41 1016.3
20260503220714 83 235 0.0 4.0 0.00 0.00 0.00 41 1017.6
20260503220503 83 253 1.0 3.0 0.00 0.00 0.00 41 1016.4
20260503220214 83 209 1.0 2.0 0.00 0.00 0.00 42 1017.6
20260503220003 83 11 1.0 5.0 0.00 0.00 0.00 41 1016.3
20260503215714 83 49 0.0 4.0 0.00 0.00 0.00 41 1017.6
20260503215502 83 78 0.0 5.0 0.00 0.00 0.00 40 1016.4
20260503215215 83 55 0.0 1.0 0.00 0.00 0.00 40 1017.6
20260503215003 83 85 0.0 4.0 0.00 0.00 0.00 39 1016.5
20260503214713 84 38 0.0 2.0 0.00 0.00 0.00 39 1017.9
20260503214504 84 254 0.0 4.0 0.00 0.00 0.00 39 1016.6
20260503214213 85 299 1.0 1.0 0.00 0.00 0.00 38 1017.9
20260503214002 85 177 0.0 2.0 0.00 0.00 0.00 39 1016.7
20260503213715 85 56 1.0 1.0 0.00 0.00 0.00 39 1017.9
20260503213502 85 54 0.0 2.0 0.00 0.00 0.00 38 1016.7
20260503213215 86 295 0.0 2.0 0.00 0.00 0.00 38 1017.9
20260503213002 86 223 1.0 4.0 0.00 0.00 0.00 37 1016.9
20260503212714 86 213 2.0 2.0 0.00 0.00 0.00 35 1017.9
20260503212503 86 275 0.0 4.0 0.00 0.00 0.00 37 1016.9
20260503212216 86 178 2.0 2.0 0.00 0.00 0.00 38 1018.3
20260503211715 86 53 1.0 1.0 0.00 0.00 0.00 38 1018.3
20260503211458 86 53 1.0 5.0 0.00 0.00 0.00 38 1017.1
20260503211212 86 60 2.0 4.0 0.00 0.00 0.00 38 1018.3
20260503210959 85 109 1.0 5.0 0.00 0.00 0.00 39 1017.1
20260503210712 85 53 1.0 5.0 0.00 0.00 0.00 37 1018.3
20260503210459 85 216 1.0 5.0 0.00 0.00 0.00 37 1017.2
20260503210214 86 182 2.0 3.0 0.00 0.00 0.00 36 1018.6
20260503205958 86 209 1.0 5.0 0.00 0.00 0.00 36 1017.4
20260503205711 86 39 1.0 2.0 0.00 0.00 0.00 40 1018.6
20260503205459 85 131 1.0 5.0 0.00 0.00 0.00 39 1017.3
20260503205211 86 45 3.0 3.0 0.00 0.00 0.00 39 1018.6
20260503204959 85 83 1.0 6.0 0.00 0.00 0.00 38 1017.4
20260503204712 85 205 2.0 5.0 0.00 0.00 0.00 39 1018.6
20260503204459 85 212 1.0 6.0 0.00 0.00 0.00 39 1017.4
20260503204212 85 83 0.0 2.0 0.00 0.00 0.00 38 1018.6
20260503203959 85 342 1.0 5.0 0.00 0.00 0.00 39 1017.6
20260503203714 85 57 3.0 5.0 0.00 0.00 0.00 37 1019.0
20260503203455 85 234 1.0 9.0 0.00 0.00 0.00 37 1017.7
20260503203213 85 70 0.0 4.0 0.00 0.00 0.00 38 1019.0
20260503202955 85 327 2.0 9.0 0.00 0.00 0.00 39 1017.8
20260503202714 85 204 1.0 9.0 0.00 0.00 0.00 39 1019.0
20260503202456 85 196 3.0 8.0 0.00 0.00 0.00 38 1017.7
20260503202214 85 135 1.0 5.0 0.00 0.00 0.00 40 1019.0
20260503201715 85 205 3.0 8.0 0.00 0.00 0.00 37 1019.0
20260503201215 86 238 0.0 3.0 0.00 0.00 0.00 37 1019.3
20260503200955 86 51 1.0 4.0 0.00 0.00 0.00 35 1018.1
20260503200738 86 51 0.0 2.0 0.00 0.00 0.00 39 1019.3
20260503200240 85 273 1.0 3.0 0.00 0.00 0.00 39 1019.3
20260503195956 85 213 2.0 4.0 0.00 0.00 0.00 38 1018.1
20260503195740 84 194 1.0 4.0 0.00 0.00 0.00 39 1019.3
20260503195457 84 225 2.0 7.0 0.00 0.00 0.00 39 1018.2
20260503195237 85 254 0.0 4.0 0.00 0.00 0.00 39 1019.6
20260503194952 85 241 1.0 7.0 0.00 0.00 0.00 38 1018.3
20260503194740 86 230 0.0 5.0 0.00 0.00 0.00 38 1019.6
20260503194450 86 167 1.0 7.0 0.00 0.00 0.00 39 1018.3
20260503194241 86 237 0.0 2.0 0.00 0.00 0.00 37 1019.6
20260503193950 86 24 1.0 7.0 0.00 0.00 0.00 37 1018.4
20260503193811 86 67 1.0 7.0 0.00 0.00 0.00 36 1019.6
20260503193450 87 51 1.0 3.0 0.00 0.00 0.00 38 1018.5
20260503193311 87 57 1.0 3.0 0.00 0.00 0.00 37 1019.6
20260503192950 87 220 1.0 5.0 0.00 0.00 0.00 37 1018.6
20260503192813 87 81 3.0 3.0 0.00 0.00 0.00 36 1019.6
20260503192450 87 88 0.0 5.0 0.00 0.00 0.00 38 1018.7
20260503192310 87 159 0.0 2.0 0.00 0.00 0.00 38 1020.0
20260503191951 87 161 0.0 4.0 0.00 0.00 0.00 37 1018.7
20260503191810 86 216 1.0 1.0 0.00 0.00 0.00 37 1020.0
20260503191451 86 227 0.0 3.0 0.00 0.00 0.00 39 1018.7
20260503191314 86 325 0.0 1.0 0.00 0.00 0.00 40 1020.0
20260503190952 85 252 0.0 3.0 0.00 0.00 0.00 39 1018.8
20260503190812 85 76 0.0 1.0 0.00 0.00 0.00 39 1020.0
20260503190446 84 235 1.0 6.0 0.00 0.00 0.00 41 1018.8
20260503190312 84 254 0.0 3.0 0.00 0.00 0.00 41 1020.0
20260503185946 83 221 3.0 8.0 0.00 0.00 0.00 41 1018.8
20260503185810 83 163 0.0 6.0 0.00 0.00 0.00 41 1020.0
20260503185446 83 207 2.0 8.0 0.00 0.00 0.00 40 1018.9
20260503185310 84 227 4.0 6.0 0.00 0.00 0.00 39 1020.0
20260503184946 84 228 1.0 6.0 0.00 0.00 0.00 39 1019.0
20260503184813 84 261 3.0 6.0 0.00 0.00 0.00 40 1020.3
20260503184315 84 256 1.0 2.0 0.00 0.00 0.00 39 1020.7
20260503184000 84 317 1.0 7.0 0.00 0.00 0.00 41 1019.3
20260503183812 84 158 1.0 3.0 0.00 0.00 0.00 41 1020.7
20260503183446 83 49 1.0 7.0 0.00 0.00 0.00 43 1019.3
20260503183310 82 239 0.0 7.0 0.00 0.00 0.00 43 1020.7
20260503182812 82 35 3.0 3.0 0.00 0.00 0.00 45 1020.7
20260503182447 82 88 2.0 6.0 0.00 0.00 0.00 44 1019.5
20260503182312 82 86 0.0 5.0 0.00 0.00 0.00 43 1020.7
20260503181944 83 71 1.0 6.0 0.00 0.00 0.00 41 1019.6
20260503181811 84 80 4.0 6.0 0.00 0.00 0.00 41 1020.7
20260503181442 84 83 1.0 7.0 0.00 0.00 0.00 43 1019.6
20260503181312 83 323 1.0 2.0 0.00 0.00 0.00 45 1021.0
20260503180944 83 206 1.0 7.0 0.00 0.00 0.00 44 1019.7
20260503180814 83 98 0.0 2.0 0.00 0.00 0.00 44 1021.0
20260503180442 83 82 1.0 5.0 0.00 0.00 0.00 46 1019.8
20260503180313 82 64 1.0 3.0 0.00 0.00 0.00 44 1021.0
20260503175944 82 215 1.0 5.0 0.00 0.00 0.00 42 1020.0
20260503175841 82 159 0.0 5.0 0.00 0.00 0.00 44 1021.3
20260503175442 82 149 1.0 6.0 0.00 0.00 0.00 44 1020.1
20260503175410 82 66 0.0 3.0 0.00 0.00 0.00 44 1021.3
20260503174943 81 142 2.0 7.0 0.00 0.00 0.00 47 1020.3
20260503174914 81 140 1.0 4.0 0.00 0.00 0.00 45 1021.3
20260503174410 82 82 2.0 5.0 0.00 0.00 0.00 42 1021.3
20260503173942 83 70 1.0 4.0 0.00 0.00 0.00 41 1020.3
20260503173912 83 55 2.0 3.0 0.00 0.00 0.00 42 1021.3
20260503173443 83 96 0.0 2.0 0.00 0.00 0.00 44 1020.4
20260503173413 82 135 0.0 2.0 0.00 0.00 0.00 45 1021.3
20260503172943 81 280 1.0 5.0 0.00 0.00 0.00 45 1020.4
20260503172910 81 167 1.0 1.0 0.00 0.00 0.00 45 1021.7
20260503172441 81 65 1.0 5.0 0.00 0.00 0.00 43 1020.5
20260503172413 82 355 2.0 4.0 0.00 0.00 0.00 43 1021.7
20260503171940 83 332 1.0 5.0 0.00 0.00 0.00 43 1020.7
20260503171914 83 31 0.0 2.0 0.00 0.00 0.00 43 1022.0
20260503171441 83 296 1.0 5.0 0.00 0.00 0.00 43 1020.6
20260503171413 83 138 1.0 5.0 0.00 0.00 0.00 43 1021.7
20260503170913 82 257 0.0 3.0 0.00 0.00 0.00 43 1022.0
20260503170440 82 114 1.0 6.0 0.00 0.00 0.00 41 1020.8
20260503170413 82 100 4.0 6.0 0.00 0.00 0.00 41 1022.0
20260503150821 77 56 0.0 3.0 0.00 0.00 0.00 56 1021.1
20260503150511 77 56 1.0 1.0 0.00 0.00 0.00 57 1022.4
20260503150322 76 52 0.0 3.0 0.00 0.00 0.00 57 1021.0
20260503140212 68 46 0.0 1.0 0.00 0.00 0.00 74 1022.0
20260503131306 62 57 0.0 1.0 0.00 0.00 0.00 84 1020.5
20260503131036 62 57 0.0 1.0 0.00 0.00 0.00 85 1021.7
20260503130806 62 57 0.0 0.0 0.00 0.00 0.00 86 1020.4
20260503130531 61 58 0.0 0.0 0.00 0.00 0.00 87 1021.3
20260503130302 60 57 0.0 1.0 0.00 0.00 0.00 88 1020.3
20260503110701 54 78 0.0 0.0 0.00 0.00 0.00 94 1019.0
20260503110529 54 78 0.0 0.0 0.00 0.00 0.00 94 1020.3
20260503110156 54 78 0.0 0.0 0.00 0.00 0.00 94 1019.1
20260503090436 56 78 0.0 0.0 0.00 0.00 0.00 92 1019.1
20260503090130 56 78 0.0 0.0 0.00 0.00 0.00 92 1020.3